Weather History for Blair, NE

Change the Weather History Date:

Saturday, July 13, 2013

  Actual Average (KOMA) Record (KOMA)
Temperature  
Mean Temperature 80 °F 77 °F  
Max Temperature 89 °F 88 °F 108 °F (1954)
Min Temperature 72 °F 66 °F 51 °F (1975)
Degree Days  
Heating Degree Days 0 0  
Month to date heating degree days 0  
Since 1 June heating degree days 17  
Since 1 July heating degree days 0  
Cooling Degree Days 15 12  
Month to date cooling degree days 152  
Year to date cooling degree days 464  
Since 1 June cooling degree days 382  
Growing Degree Days 30 (Base 50)    
Moisture  
Dew Point 65 °F    
Average Humidity 60    
Maximum Humidity 70    
Minimum Humidity 51    
Precipitation  
Precipitation 0.00 in 0.13 in 1.72 in (1962)
Month to date precipitation 1.61  
Year to date precipitation 17.07  
Snow  
Snow 0.00 in 0.00 in - ()
Month to date snowfall 0.0  
Since 1 July snowfall 0.0  
Snow Depth -    
Sea Level Pressure  
Sea Level Pressure 29.96 in    
Wind  
Wind Speed 14 mph (SSE)    
Max Wind Speed 18 mph    
Max Gust Speed 25 mph    
Visibility 10 miles    
Events Rain    
T = Trace of Precipitation, MM = Missing Value Source: NWS Daily Summary

Daily Weather History Graph

Daily Weather History Graph

Search for Another Location

Airport:

Trip Planner

Search our weather history database for the weather conditions in past years. The results will help you decide how hot, cold, wet, or windy it might be!

Date:

Astronomy

Jul. 13, 2013 Rise Set
Actual Time 6:02 AM CDT 8:57 PM CDT
Civil Twilight 5:29 AM CDT 9:30 PM CDT
Nautical Twilight 4:47 AM CDT 10:12 PM CDT
Astronomical Twilight 3:59 AM CDT 11:00 PM CDT
Moon 11:24 AM CDT (7/13) 11:34 PM CDT (7/13)
Length of Visible Light 16h 00m
Length of Day
14h 54m
Waxing Crescent, 26% of the Moon is Illuminated
Jul 13
Waxing Crescent
Jul 15
First Quarter
Jul 22
Full
Jul 29
Last Quarter
Aug 6
New

Hourly Weather History & Observations

Time (CDT) Temp. Heat Index Dew Point Humidity Pressure Visibility Wind Dir Wind Speed Gust Speed Precip Events Conditions
12:15 AM 78.4 °F - 61.2 °F 55% 29.95 in 10.0 mi SSE 15.0 mph 19.6 mph N/A   Scattered Clouds
12:35 AM 78.4 °F - 61.0 °F 55% 29.96 in 10.0 mi SSE 12.7 mph - N/A   Scattered Clouds
12:55 AM 78.3 °F - 60.4 °F 54% 29.96 in 10.0 mi SSE 13.8 mph 18.4 mph N/A   Clear
1:15 AM 78.4 °F - 60.1 °F 53% 29.97 in 10.0 mi SSE 11.5 mph 23.0 mph N/A   Clear
1:35 AM 78.1 °F - 59.9 °F 53% 29.97 in 10.0 mi SSE 13.8 mph 20.7 mph N/A   Clear
1:55 AM 77.5 °F - 59.7 °F 54% 29.97 in 10.0 mi SSE 11.5 mph 19.6 mph N/A   Clear
2:15 AM 77.0 °F - 59.5 °F 55% 29.97 in 10.0 mi SSE 12.7 mph 18.4 mph N/A   Clear
2:35 AM 76.6 °F - 59.4 °F 55% 29.97 in 10.0 mi SSE 11.5 mph 18.4 mph N/A   Clear
2:55 AM 76.1 °F - 59.4 °F 56% 29.97 in 10.0 mi SSE 12.7 mph 19.6 mph N/A   Clear
3:15 AM 76.1 °F - 59.4 °F 56% 29.97 in 10.0 mi SSE 13.8 mph 19.6 mph N/A   Clear
3:35 AM 75.6 °F - 59.4 °F 57% 29.97 in 10.0 mi SSE 12.7 mph 19.6 mph N/A   Clear
3:55 AM 75.4 °F - 59.4 °F 57% 29.96 in 10.0 mi SSE 13.8 mph 18.4 mph N/A   Clear
4:15 AM 75.2 °F - 59.2 °F 57% 29.96 in 10.0 mi SSE 16.1 mph 23.0 mph N/A   Clear
4:35 AM 75.2 °F - 59.0 °F 57% 29.96 in 10.0 mi SSE 15.0 mph 20.7 mph N/A   Clear
4:55 AM 74.7 °F - 59.2 °F 58% 29.96 in 10.0 mi SSE 13.8 mph 17.3 mph N/A   Clear
5:15 AM 74.3 °F - 59.4 °F 60% 29.96 in 10.0 mi SSE 12.7 mph 19.6 mph N/A   Clear
5:35 AM 73.9 °F - 59.5 °F 61% 29.96 in 10.0 mi SSE 12.7 mph - N/A   Clear
5:55 AM 73.6 °F - 59.9 °F 62% 29.96 in 10.0 mi SSE 11.5 mph - N/A   Clear
6:15 AM 73.4 °F - 59.7 °F 62% 29.97 in 10.0 mi SSE 12.7 mph - N/A   Clear
6:35 AM 73.4 °F - 59.9 °F 63% 29.97 in 10.0 mi SSE 13.8 mph 19.6 mph N/A   Scattered Clouds
6:55 AM 72.9 °F - 59.9 °F 64% 29.96 in 10.0 mi SSE 13.8 mph - N/A   Mostly Cloudy
7:15 AM 73.0 °F - 59.7 °F 63% 29.97 in 10.0 mi SSE 13.8 mph - N/A   Scattered Clouds
7:35 AM 73.4 °F - 60.1 °F 63% 29.97 in 10.0 mi SSE 10.4 mph - N/A   Scattered Clouds
7:55 AM 73.6 °F - 60.4 °F 63% 29.97 in 10.0 mi SSE 11.5 mph - N/A   Scattered Clouds
8:15 AM 74.3 °F - 60.6 °F 62% 29.97 in 10.0 mi SSE 16.1 mph - N/A   Clear
8:35 AM 74.3 °F - 61.0 °F 63% 29.97 in 10.0 mi SSE 12.7 mph 20.7 mph N/A   Mostly Cloudy
8:55 AM 74.3 °F - 61.0 °F 63% 29.98 in 10.0 mi SSE 15.0 mph 19.6 mph N/A   Mostly Cloudy
9:15 AM 74.5 °F - 61.7 °F 64% 29.98 in 10.0 mi SSE 15.0 mph 20.7 mph N/A   Scattered Clouds
9:35 AM 75.6 °F - 63.1 °F 65% 29.98 in 10.0 mi SSE 15.0 mph - N/A   Scattered Clouds
9:55 AM 77.4 °F - 63.9 °F 63% 29.97 in 10.0 mi SSE 15.0 mph - N/A   Clear
10:15 AM 78.1 °F - 64.9 °F 64% 29.97 in 10.0 mi SSE 16.1 mph 21.9 mph N/A   Clear
10:35 AM 79.0 °F - 65.1 °F 62% 29.96 in 10.0 mi SSE 16.1 mph 25.3 mph N/A   Clear
10:55 AM 78.1 °F - 65.3 °F 65% 29.96 in 10.0 mi SSE 17.3 mph 20.7 mph N/A   Clear
11:15 AM 79.7 °F - 66.0 °F 63% 29.97 in 10.0 mi SSE 12.7 mph 20.7 mph N/A   Clear
11:35 AM 80.1 °F 82.1 °F 66.0 °F 62% 29.97 in 10.0 mi SSE 11.5 mph - N/A   Clear
11:55 AM 80.8 °F 82.9 °F 66.4 °F 61% 29.97 in 10.0 mi SSE 13.8 mph 17.3 mph N/A   Scattered Clouds
12:15 PM 81.0 °F 83.2 °F 66.2 °F 61% 29.97 in 10.0 mi SSE 16.1 mph - N/A   Scattered Clouds
12:35 PM 81.7 °F 84.2 °F 67.3 °F 61% 29.96 in 10.0 mi SSE 15.0 mph - N/A   Clear
12:55 PM 82.9 °F 85.8 °F 67.6 °F 60% 29.96 in 10.0 mi SE 12.7 mph 17.3 mph N/A   Clear
1:15 PM 83.3 °F 86.2 °F 67.5 °F 59% 29.96 in 10.0 mi SE 11.5 mph 17.3 mph N/A   Clear
1:35 PM 85.1 °F 88.5 °F 68.4 °F 57% 29.96 in 10.0 mi SE 12.7 mph - N/A   Clear
1:55 PM 85.1 °F 88.2 °F 67.8 °F 56% 29.96 in 10.0 mi SE 13.8 mph 21.9 mph N/A   Clear
2:15 PM 86.7 °F 90.6 °F 68.7 °F 55% 29.95 in 10.0 mi SE 11.5 mph 20.7 mph N/A   Clear
2:35 PM 86.5 °F 90.7 °F 69.1 °F 56% 29.95 in 10.0 mi SSE 12.7 mph - N/A   Clear
2:55 PM 87.4 °F 91.5 °F 68.7 °F 54% 29.95 in 10.0 mi SSE 15.0 mph 20.7 mph N/A   Clear
3:15 PM 87.8 °F 92.2 °F 69.3 °F 54% 29.95 in 10.0 mi SSE 11.5 mph 19.6 mph N/A   Clear
3:35 PM 88.3 °F 92.4 °F 68.7 °F 52% 29.94 in 10.0 mi SSE 18.4 mph 21.9 mph N/A   Clear
3:55 PM 88.9 °F 93.0 °F 68.5 °F 51% 29.94 in 10.0 mi SSE 15.0 mph 20.7 mph N/A   Clear
4:15 PM 88.9 °F 93.0 °F 68.5 °F 51% 29.95 in 10.0 mi SE 15.0 mph 21.9 mph N/A   Clear
4:35 PM 88.7 °F 92.6 °F 68.2 °F 51% 29.95 in 10.0 mi SSE 15.0 mph 24.2 mph N/A   Clear
4:55 PM 87.8 °F 92.6 °F 69.8 °F 55% 29.95 in 10.0 mi SSE 11.5 mph 19.6 mph N/A   Clear
5:15 PM 87.3 °F 91.6 °F 69.4 °F 55% 29.95 in 10.0 mi SE 15.0 mph 21.9 mph N/A   Clear
5:35 PM 87.3 °F 93.6 °F 71.8 °F 60% 29.95 in 10.0 mi SE 12.7 mph - N/A   Clear
5:55 PM 86.4 °F 91.4 °F 70.5 °F 59% 29.95 in 10.0 mi SE 13.8 mph 18.4 mph N/A   Clear
6:15 PM 86.2 °F 91.1 °F 70.3 °F 59% 29.94 in 10.0 mi SSE 16.1 mph - N/A   Clear
6:35 PM 85.5 °F 90.1 °F 70.2 °F 60% 29.94 in 10.0 mi SSE 15.0 mph 18.4 mph N/A   Clear
6:55 PM 84.2 °F 88.1 °F 69.4 °F 61% 29.93 in 10.0 mi SE 10.4 mph 16.1 mph N/A   Scattered Clouds
7:15 PM 84.2 °F 89.3 °F 71.1 °F 65% 29.93 in 10.0 mi SSE 11.5 mph 18.4 mph N/A   Scattered Clouds
7:35 PM 83.8 °F 89.2 °F 72.0 °F 67% 29.93 in 10.0 mi SE 11.5 mph - N/A   Scattered Clouds
7:55 PM 82.9 °F 86.5 °F 69.1 °F 63% 29.93 in 10.0 mi SE 12.7 mph 19.6 mph N/A   Clear
8:15 PM 82.4 °F 85.8 °F 69.1 °F 64% 29.94 in 10.0 mi SE 8.1 mph - N/A   Clear
8:35 PM 81.7 °F 85.4 °F 70.2 °F 68% 29.95 in 10.0 mi SE 13.8 mph 21.9 mph N/A   Clear
8:55 PM 81.5 °F 84.9 °F 69.8 °F 67% 29.95 in 10.0 mi SE 16.1 mph 23.0 mph N/A   Clear
9:15 PM 80.6 °F 83.9 °F 70.0 °F 70% 29.96 in 10.0 mi SE 11.5 mph 23.0 mph N/A   Clear
9:35 PM 80.2 °F 83.0 °F 68.5 °F 67% 29.96 in 10.0 mi SE 15.0 mph 21.9 mph N/A   Clear
9:55 PM 79.3 °F - 68.4 °F 69% 29.96 in 10.0 mi SE 11.5 mph 16.1 mph N/A   Clear
10:15 PM 79.2 °F - 67.1 °F 66% 29.96 in 10.0 mi SE 13.8 mph 23.0 mph N/A   Clear
10:35 PM 78.8 °F - 65.8 °F 64% 29.97 in 10.0 mi SE 10.4 mph 20.7 mph N/A   Clear
10:55 PM 78.8 °F - 65.3 °F 63% 29.98 in 10.0 mi SE 10.4 mph 20.7 mph N/A   Clear
11:15 PM 78.1 °F - 64.9 °F 64% 29.98 in 10.0 mi SSE 17.3 mph 23.0 mph N/A   Scattered Clouds
11:35 PM 77.0 °F - 65.5 °F 67% 29.98 in 10.0 mi SE 12.7 mph 20.7 mph N/A Rain Light Rain
11:55 PM 77.0 °F - 65.3 °F 67% 29.99 in 10.0 mi SSE 15.0 mph 23.0 mph N/A   Clear